Location: Lucerne Valley
(34.4439°N, 116.9669°E)
Time: 22:27:33
(UTC-07:00)

OTV 5 (USA 277) - Pass Details

Date: 11 October 2017
Orbit: 404 x 417 km, 43.0° (Epoch: 07 September)

Event Time Altitude Azimuth Distance (km) Brightness Sun altitude
Rises 05:08:14 0° 282° (WNW) 2,349 ? -30.6°
Reaches altitude 10° 05:10:42 10° 299° (WNW) 1,486 ? -31.1°
Enters shadow 05:10:58 11° 302° (WNW) 1,404 ? -31.1°
